Weather Roundup
Issued by NWS Chicago, IL

Home | Current Version | Previous Version | Text Only | Print | Product List | Glossary Off
Versions: 1 2 3 4 5 6 7 8 9 10 11 12 13 14 15 16 17 18 19 20 21 22 23 24 25 26 27 28 29 30 31 32 33 34 35 36 37 38 39 40 41 42 43 44 45 46 47 48 49 50

000
NZUS59 KLOT 310108
HRRLOT

CHICAGO AREA WEATHER ROUNDUP
NATIONAL WEATHER SERVICE CHICAGO/ROMEOVILLE IL
800 PM CDT SUN AUG 30 2015

NOTE: "FAIR" INDICATES FEW OR NO CLOUDS BELOW 12,000 FEET WITH NO
SIGNIFICANT WEATHER AND/OR OBSTRUCTIONS TO VISIBILITY.

* THESE STATIONS ARE NOT UNDER NWS QUALITY CONTROL. THEY ALSO MAY NOT
  REPORT WEATHER SUCH AS PRECIPITATION OR FOG.

ILZ005-006-012>014-019>023-310200-
NORTHEAST ILLINOIS

CITY           SKY/WX    TMP DP  RH WIND       PRES   REMARKS
OHARE          CLEAR     69  64  84 E7        30.03R
MIDWAY         CLEAR     71  64  78 E8        30.03R
AURORA         CLEAR     68  65  90 CALM      30.03R
LANSING*       CLEAR     69  65  89 N3        30.03R
JOLIET*        CLEAR     68  65  92 CALM      30.02R
WAUKEGAN       CLEAR     64  63  96 SE5       30.02S FOG
DUPAGE AIRPORT CLEAR     68  63  84 CALM      30.02S
WHEELING       CLEAR     67  63  87 E3        30.04R
KANKAKEE*      CLEAR     71  67  88 CALM      30.03R
MORRIS*        CLEAR     69  65  86 NW5       30.02R
LEWIS AIRPORT* CLEAR     71  63  74 NW3       30.03R
NORTHERLY IS     N/A     68  64  87 E5          N/A
$$

WIZ051-052-058>065-066-070>072-310200-
SOUTHEAST WISCONSIN

CITY           SKY/WX    TMP DP  RH WIND       PRES   REMARKS
MILWAUKEE      CLEAR     65  62  90 S7        30.02R
KENOSHA*       CLEAR     65  62  90 SE6       30.03S
RACINE*        CLEAR     65  62  90 S3        30.04R
BURLINGTON     CLEAR     63  61  94 S3        30.02S
WAUKESHA       CLEAR     64  63  94 CALM      30.03R
WEST BEND      CLEAR     64  61  88 CALM      30.02R
$$

INZ001>003-010>013-019-020-310200-
NORTHWEST INDIANA

CITY           SKY/WX    TMP DP  RH WIND       PRES   REMARKS
GARY*          PTCLDY    70  64  83 VRB5      30.04R
MICHIGAN CITY* NOT AVBL
RENSSELAER*    NOT AVBL
VALPARAISO     CLEAR     68  66  93 N3        30.04R
$$

LMZ740>746-310200-
SOUTHERN LAKE MICHIGAN

STATION/POSITION TIME  SKY/WX   TEMP WIND        PRES    VSBY
                                AIR  DIR/SP/G
                 (UTC)          (F)  (DEG/KT/KT) (MB)    (MI)
HARRISON CRIB    0000            68   70/  5/  6   N/A
BURNHAM HARBOR   0100            68   70/  4/  5   N/A
CALUMET HARBOR   NOT AVBL
BURNS HARBOR     0000            70   60/  8/  8 1016.9F
MICHIGAN CITY    0000            69   20/  7/  7   N/A
$$

ABBREVIATIONS USED IN REMARKS
   TC - TEMPERATURE IN CELSIUS
  WCI - WIND CHILL INDEX
   HX - HEAT INDEX
  VSB - VISIBILITY
$$



USA.gov is the U.S. government's official web portal to all federal, state and local government web resources and services.